Location: Unspecified
(0.0000°N, 0.0000°E)
Time: 13:18:22
(UTC+00:00)

Vanguard 2 - Pass Details

Date: 20 September 2019
Orbit: 554 x 2937 km, 32.9° (Epoch: 13 October)

Event Time Altitude Azimuth Distance (km) Brightness Sun altitude
Rises 22:31:34 0° 230° (SW) 6,291 12.4 -69.5°
Reaches altitude 10° 22:35:27 10° 228° (SW) 5,470 11.9 -70.5°
Enters shadow 22:38:53 20° 226° (SW) 4,775 11.5 -71.4°
Maximum altitude 22:53:03 76° 144° (SE) 2,977 - -74.9°
Drops below altitude 10° 23:09:14 10° 60° (ENE) 5,101 - -78.9°
Sets 23:12:41 0° 59° (ENE) 5,868 - -79.8°
